Погода в Виноградном

Россия / Республика Северная Осетия — Алания     43°41′56″N   44°29′14″E
темп.,
°C
ветер,
м/с
пор.,
м/с
влажн.,
%
обл.,
%
осадки,
мм/ч
давл.,
гПа
погр.,
м
4 июля, пн
пн400:00+17юз47685 0.0 1015113
03:00+16юз46656 0.0 101592
06:00+17зюз36635 0.0 1016157
09:00+24з45435 0.0 1016818
12:00+27зсз34313 0.0 10152619
15:00+29сз33290 0.0 10142685
18:00+28з22360 0.0 1013248
21:00+21зюз33480 0.0 101430
5 июля, вт
вт500:00+19зюз46600 0.0 101479
03:00+17зюз46660 0.0 101485
06:00+19зюз36640 0.0 1014152
09:00+26з34420 0.0 1015618
12:00+30зсз34310 0.0 10142714
15:00+32сз452758 0.0 10123085
18:00+28сз354099 0.0 1012217
21:00+25всв394237 0.0 1014231
6 июля, ср
ср600:00+20всв363719 0.0 101576
03:00+20юв114013 0.0 101511
06:00+20всв12510 0.0 101665
09:00+26всв34320 0.0 1015984
12:00+29всв55270 0.0 10142177
15:00+31всв55260 0.0 10132514
18:00+28св68290 0.0 1012531
21:00+23вюв814430 0.0 1015686
7 июля, чт
чт700:00+18в49550 0.0 1015266
03:00+15в49770 0.0 1015224
06:00+17в510810 0.0 1015458
09:00+23в685713 0.0 10141128
12:00+29в783919 0.0 10121882
15:00+30в88348 0.0 10112171
18:00+27в78374 0.0 10121343
21:00+22в612450 0.0 1013505
8 июля, пт
пт800:00+18в49580 0.0 1013348
03:00+16в23722 0.0 101253
06:00+17в23735 0.0 1013212
09:00+22в34662 0.6 1012694
12:00+29юв35400 0.1 10111551
15:00+33вюв46257 0.1 10082670
18:00+29в91127100 0.0 1009901
21:00+24в61140100 0.0 1011423